EHI
0 0 0 0 0 0 0 0 0 0 0 0 0 0 0 0 0 0 0 0 0 0 0 0 0 0 0 0 0 0 0 0 0 0 0 0 0 0 0 0 0 0 0 0
0 0 0 0 0 0 0 0 0 0 0 0 0 0 0 0 0 0 0 0 0 0 0 0 0 0 0 0 0 0 0 0 0 0 0 0 0 0 0 0 0 0 0 0
0 0 0 0 0 0 0 0 0 0 0 0 0 0 0 0 0 0 0 0 0 0 0 0 0 0 0 0 0 0 0 0 0 0 0 0 0 0 0 0 0 0 0 0
0 0 0 0 0 0 0 0 0 0 0 0 0 0 0 0 0 0 0 0 0 0 0 0 0 0 0 0 0 0 0 0 0 0 0 0 0 0 0 0 0 0 0 0
0 0 0 0 0 0 0 0 0 0 0 0 0 0 0 0 0 0 0 0 0 0 0 0 0 0 0 0 0 0 0 0 0 0 0 0 0 0 0 0 0 0 0 0
0 0 0 0 0 0 0 0 0 0 0 0 0 0 0 0 0 0 0 0 0 0 0 0 0 0 0 0 0 0 0 0 0 0 0 0 0 0 0 0 0 0 0 0
0 0 0 0 0 0 0 0 0 0 0 0 0 0 0 0 0 0 0 0 0 0 0 0 0 0 0 0 0 0 0 0 0 0 0 0 0 0 0 0 0 0 0 0
0 0 0 0 0 0 0 0 0 0 0 0 0 0 0 0 0 0 0 0 0 0 0 0 0 0 0 0 0 0 0 0 0 0 0 0 0 0 0 0 0 0 0 0
0 0 0 0 0 0 0 0 0 0 0 0 0 0 0 0 0 0 0 0 0 0 0 0 0 0 0 0 0 0 0 0 0 0 0 0 0 0 0 0 0 0 0 0
0 0 0 0 0 0 0 0 0 0 0 0 0 0 0 0 0 0 0 0 0 0 0 0 0 0 0 0 0 0 0 0 0 0 0 0 0 0 0 0 0 0 0 0
0 0 0 0 0 0 0 0 0 0 0 0 0 0 0 0 0 0 0 0 0 0 0 0 0 0 0 0 0 0 0 0 0 0 0 0 0 0 0 0 0 0 0 0
0 0 0 0 0 0 0 0 0 0 0 0 0 0 0 0 0 0 0 0 0 0 0 0 0 0 0 0 0 0 0 0 0 0 0 0 0 0 0 0 0 0 0 0
0 0 0 0 0 0 0 0 0 0 0 0 0 0 0 0 0 0 0 0 0 0 0 0 0 0 0 0 0 0 0 0 0 0 0 0 0 0 0 0 0 0 0 0
0 0 0 0 0 0 0 0 0 0 0 0 0 0 0 0 0 0 0 0 0 0 0 0 0 0 0 0 0 0 0 0 0 0 0 0 0 0 0 0 0 0 0 0
0 0 0 0 0 0 0 0 0 0 0 0 0 0 0 0 0 0 0 0 0 0 0 0 0 0 0 0 0 0 0 0 0 0 0 0 0 0 0 0 0 0 0 0
0 0 0 0 0 0 0 0 0 0 0 0 0 0 0 0 0 0 0 0 0 0 0 0 0 0 0 0 0 0 0 0 0 0 0 0 0 0 0 0 0 0 0 0
0 0 0 0 0 0 0 0 0 0 0 0 0 0 0 0 0 0 0 0 0 0 0 0 0 0 0 0 0 0 0 0 0 0 0 0 0 0 0 0 0 0 0 0
0 0 0 0 0 0 0 0 0 0 0 0 0 0 0 0 0 0 0 0 0 0 0 0 0 0 0 0 0 0 0 0 0 0 0 0 0 0 0 0 0 0 0 0
0 0 0 0 0 0 0 0 0 0 0 0 0 0 0 0 0 0 0 0 0 0 0 0 0 0 0 0 0 0 0 0 0 0 0 0 0 0 0 0 0 0 0 0
0 0 0 0 0 0 0 0 0 0 0 0 0 0 0 0 0 0 0 0 0 0 0 0 0 0 0 0 0 0 0 0 0 0 0 0 0 0 0 0 0 0 0 0
0 0 0 0 0 0 0 0 0 0 0 0 0 0 0 0 0 0 0 0 0 0 0 0 0 0 0 0 0 0 0 0 0 0 0 0 0 0 0 0 0 0 0 0
0 0 0 0 0 0 0 0 0 0 0 0 0 0 0 0 0 0 0 0 0 0 0 0 0 0 0 0 0 0 0 0 0 0 0 0 0 0 0 0 0 0 0 0
0 0 0 0 0 0 0 0 0 0 0 0 0 0 0 0 0 0 0 0 0 0 0 0 0 0 0 0 0 0 0 0 0 0 0 0 0 0 0 0 0 0 0 0
0 0 0 0 0 0 0 0 0 0 0 0 0 0 0 0 0 0 0 0 0 0 0 0 0 0 0 0 0 0 0 0 0 0 0 0 0 0 0 0 0 0 0 0
0 0 0 0 0 0 0 0 0 0 0 0 0 0 0 0 0 0 0 0 0 0 0 0 0 0 0 0 0 0 0 0 0 0 0 0 0 0 0 0 0 0 0 0
0 0 0 0 0 0 0 0 0 0 0 0 0 0 0 0 0 0 0 0 0 0 0 0 0 0 0 0 0 0 0 0 0 0 0 0 0 0 0 0 0 0 0 0
0 0 0 0 0 0 0 0 0 0 0 0 0 0 0 0 0 0 0 0 0 0 0 0 0 0 0 0 0 0 0 0 0 0 0 0 0 0 0 0 0 0 0 0
Wind_Speed
3 3 5 6 7 9 8 8 7 6 6 7 8 9 9 9 8 8 7 7 8 7 6 6 5 5 5 5 4 5 5 5 5 5 5 6 6 6 6 7 7 7 7 7
1 2 4 4 7 10 10 8 8 5 6 6 5 5 6 8 9 9 9 9 8 8 8 8 7 6 5 5 5 5 6 5 5 5 6 6 6 6 7 7 7 7 7 7
1 0 1 6 10 12 8 7 9 11 9 3 4 8 9 9 9 10 9 9 9 9 9 8 8 7 7 6 5 6 6 5 5 5 6 5 6 6 6 6 6 7 7 7
1 1 6 8 3 7 9 9 8 7 6 7 8 7 6 7 9 8 8 8 8 8 7 7 6 6 6 6 6 6 5 5 5 5 6 5 6 6 5 5 5 5 6 6
2 3 6 7 3 4 6 6 8 9 7 5 4 3 1 2 5 7 7 6 6 7 7 7 8 8 8 6 6 6 6 5 5 6 6 6 6 5 4 5 5 5 4 5
3 2 5 5 2 1 3 4 4 7 8 6 7 4 5 3 3 4 5 5 6 7 7 8 7 8 8 7 6 6 6 6 5 6 6 6 5 5 4 4 4 4 4 3
3 3 7 6 1 3 2 5 2 3 6 7 7 5 3 5 4 4 5 5 7 8 7 7 8 8 8 7 6 6 6 6 6 5 6 5 5 4 4 4 4 4 3 3
4 5 8 3 3 4 5 1 1 2 3 4 4 4 4 5 5 6 6 6 7 7 6 6 7 8 8 7 6 6 7 6 6 6 5 5 5 4 4 5 4 3 3 2
7 7 5 3 4 3 3 2 1 2 2 4 4 3 4 4 5 6 6 6 6 7 7 5 6 7 8 7 7 7 7 6 6 6 4 5 5 5 4 4 3 3 2 2
4 5 3 2 1 1 2 3 2 2 3 3 3 3 3 4 4 5 6 6 6 7 7 6 6 7 7 8 8 8 8 7 6 6 5 4 3 4 4 4 4 3 3 3
4 4 1 2 3 3 2 3 3 3 2 2 3 3 3 3 4 5 6 6 7 8 8 8 7 7 7 8 9 8 8 7 6 5 5 4 3 3 4 4 5 5 4 3
6 6 5 4 3 4 4 3 3 3 2 1 2 2 2 3 3 4 6 6 7 8 8 8 8 8 8 9 9 9 8 7 5 5 4 4 4 2 4 4 6 7 7 6
4 2 3 2 3 3 4 3 2 2 1 1 0 1 2 2 3 3 5 7 8 9 8 8 9 9 9 10 10 9 8 7 5 5 5 5 4 4 3 2 3 5 7 7
2 3 3 3 3 3 3 3 2 2 1 1 0 0 1 1 2 3 5 7 7 7 8 8 9 9 9 10 10 9 8 9 8 6 6 6 5 5 4 4 3 2 4 7
2 2 4 4 4 3 3 3 2 1 1 1 1 1 1 2 3 4 4 4 5 6 7 8 9 9 9 10 10 10 8 6 6 5 5 5 5 5 4 4 4 3 2 4
2 3 5 5 5 3 2 2 1 0 1 1 2 2 3 3 4 3 3 4 6 7 8 8 9 8 9 10 10 8 7 11 9 6 6 5 5 5 5 5 4 4 4 4
5 5 4 4 4 3 2 1 1 1 1 2 3 3 3 3 2 3 3 3 5 6 6 7 7 7 9 10 10 7 6 8 12 7 6 6 6 6 6 5 5 5 5 6
3 3 4 4 4 3 2 1 0 1 1 2 3 3 3 2 3 3 3 3 3 3 4 5 6 7 8 9 8 7 6 6 7 7 6 6 6 6 6 6 6 6 4 5
5 5 5 4 4 3 2 1 1 1 2 2 2 3 3 3 3 3 2 2 3 4 4 4 7 7 8 9 9 6 7 7 7 6 6 9 8 6 6 6 6 6 5 5
6 5 5 5 4 3 2 2 2 2 2 2 2 3 3 3 3 3 2 3 3 2 2 3 4 5 6 8 10 6 7 8 8 7 7 7 7 7 6 7 6 6 6 6
4 4 4 4 3 3 2 2 2 2 3 2 2 3 3 3 3 2 2 3 2 2 2 3 3 3 4 6 10 6 7 7 8 7 7 7 7 7 7 6 6 6 6 6
2 3 3 2 2 2 2 2 2 2 3 3 3 3 3 3 3 3 3 2 2 4 2 2 2 4 6 7 5 6 7 7 7 6 7 7 7 7 7 7 6 6 6 5
2 2 2 2 1 1 2 2 2 2 3 3 3 3 3 3 2 3 3 2 2 5 3 2 4 7 8 5 4 6 7 7 7 7 7 7 7 7 7 7 6 6 6 6
1 1 1 1 1 1 1 2 3 2 3 3 3 3 3 3 3 2 2 6 7 7 3 5 7 8 7 3 4 5 6 6 6 6 6 6 6 6 6 6 6 6 6 6
1 1 0 0 0 1 2 2 2 2 3 2 3 3 3 2 3 3 4 4 7 6 3 5 7 7 3 3 4 4 5 6 6 6 6 6 6 6 6 6 6 5 5 6
2 1 1 2 1 1 1 1 1 2 2 3 3 3 3 2 3 3 3 4 5 6 4 3 3 4 2 3 4 4 4 5 6 6 6 6 6 6 6 6 7 6 5 5
2 1 1 1 1 1 1 1 2 2 2 3 3 3 3 3 3 3 4 4 3 3 3 3 2 2 2 3 3 3 4 4 4 4 5 5 5 5 5 6 5 5 4 4
Wind_Direction
228 197 165 192 198 192 195 195 197 227 228 230 208 186 180 176 171 170 177 179 178 174 169 160 151 146 138 129 122 114 106 98 90 82 77 73 69 65 63 63 64 63 65 66
287 219 199 222 218 207 211 211 219 239 255 242 210 178 176 180 177 184 191 191 186 178 171 169 164 158 147 137 129 120 113 108 102 95 87 82 79 76 73 68 65 64 62 64
261 269 48 258 224 208 208 206 198 221 233 223 183 189 191 191 191 196 198 193 187 183 178 174 169 160 153 144 131 122 118 115 112 108 101 96 95 87 80 76 73 68 63 63
170 117 236 245 235 201 212 224 206 212 213 206 204 200 197 190 192 202 198 190 184 174 166 159 154 147 139 136 133 129 128 127 126 123 116 110 103 96 89 83 79 76 68 61
171 226 275 284 250 181 191 247 218 210 208 201 172 125 252 218 196 198 190 178 169 160 153 150 151 148 139 137 138 139 141 142 140 136 132 126 117 109 104 99 90 82 75 66
183 215 247 263 276 166 130 265 259 202 195 181 148 169 233 196 155 147 138 137 140 138 138 148 153 147 145 150 153 156 153 148 142 141 139 134 128 119 110 109 106 98 82 67
201 240 265 259 239 107 171 250 307 179 175 166 174 191 179 142 137 139 136 137 138 142 150 158 154 150 153 158 164 155 145 142 141 140 139 137 130 124 123 117 110 103 93 69
183 215 253 244 144 183 215 224 68 92 130 145 143 126 131 143 148 146 143 143 146 148 153 155 155 154 158 165 157 145 145 146 144 144 148 145 138 134 131 131 127 126 119 97
195 217 245 214 201 213 171 151 126 115 116 128 131 148 158 163 164 165 164 162 158 156 156 161 165 162 166 166 155 150 150 153 153 152 150 148 149 150 145 147 149 159 161 167
234 255 247 233 220 178 150 140 125 119 127 135 148 165 174 176 178 178 178 175 166 163 169 176 176 173 168 162 160 158 161 162 162 159 155 154 156 160 163 169 171 177 183 188
241 259 265 251 213 188 136 112 108 99 104 128 143 166 182 191 195 193 188 181 176 179 184 185 178 176 171 168 165 166 168 170 170 168 162 161 164 176 179 194 188 183 192 186
221 219 201 220 204 167 150 151 145 131 113 99 151 187 191 205 203 196 190 183 184 188 188 185 181 182 179 176 174 172 174 177 175 167 162 160 154 151 197 194 202 202 194 190
216 206 180 159 128 133 142 143 135 133 141 146 197 199 199 213 212 202 195 191 195 196 192 186 185 188 185 180 179 181 181 179 176 172 170 170 169 167 173 197 208 206 206 207
188 134 140 165 156 131 126 119 107 88 68 75 160 247 218 226 225 217 213 208 201 194 190 188 190 194 186 180 180 183 181 185 182 180 178 180 183 184 181 183 195 232 233 227
225 176 166 143 126 117 111 106 96 69 25 4 351 305 258 247 244 241 233 210 194 194 194 192 197 197 183 181 183 184 183 185 184 179 180 183 184 184 189 196 201 209 221 241
155 112 121 130 138 133 122 122 134 279 321 314 312 296 282 266 257 250 234 201 195 204 203 199 204 196 183 183 184 185 190 193 184 181 183 184 185 190 195 201 205 210 217 219
158 164 161 161 162 157 157 165 183 263 303 302 298 298 294 285 272 259 249 229 219 217 209 205 205 189 184 186 186 188 187 191 190 187 191 191 192 197 199 201 209 216 222 221
149 154 153 154 157 153 145 121 96 327 305 304 309 310 303 287 276 274 271 258 240 235 225 212 198 185 187 188 188 186 185 188 189 193 194 196 198 199 200 206 213 219 223 229
83 91 92 98 106 113 106 76 21 345 334 329 321 309 302 299 298 295 285 255 238 243 240 220 203 191 191 192 186 186 187 190 194 196 196 206 207 202 205 209 214 217 216 218
75 78 82 78 71 73 70 38 6 350 344 336 325 319 316 314 314 303 282 257 248 257 248 221 205 200 197 195 190 190 193 196 199 199 199 203 205 207 210 213 214 217 219 221
79 79 80 79 71 64 51 27 12 353 344 343 331 317 311 310 311 303 290 280 292 297 263 232 211 206 200 200 197 195 197 200 202 202 203 207 209 210 212 215 217 219 220 222
81 81 76 70 67 52 30 20 6 349 344 341 334 329 325 320 317 305 279 273 299 302 284 240 230 225 220 211 200 198 202 205 207 205 205 206 208 211 214 214 218 222 223 222
92 91 81 64 49 24 12 7 355 346 338 332 329 324 314 303 298 294 299 306 306 298 292 253 258 250 237 219 204 203 205 207 208 207 207 208 210 211 214 216 218 221 222 224
112 93 75 52 46 26 345 337 337 337 333 328 327 325 320 316 308 287 292 306 309 303 285 274 271 261 247 220 208 208 210 210 210 209 208 210 211 212 214 215 219 220 222 224
183 186 188 176 260 279 291 310 320 326 329 323 322 324 321 306 295 302 302 298 303 305 290 281 278 269 248 222 215 214 213 214 213 208 209 210 210 212 213 215 218 220 221 224
219 223 223 225 237 260 277 287 290 298 309 313 314 310 312 310 305 302 301 299 299 303 301 286 276 267 249 233 228 223 219 222 226 219 211 210 212 212 214 216 219 220 222 224
227 230 236 256 259 249 255 264 273 286 295 300 302 302 309 312 311 310 309 307 306 301 294 287 278 267 256 245 237 228 220 216 216 215 211 210 210 214 215 215 217 217 217 221